Oroville, CA

6:43 AM PDT on August 16, 2017 (GMT -0700)
Oroville Municipal

Weather History for KOVE - March, 2014

Change the Weather History Date:

Sunday, March 2, 2014

  Actual Average Record
Temperature  
Mean Temperature 56 °F -  
Max Temperature 57 °F 61 °F 77 °F (1954)
Min Temperature 54 °F 42 °F 30 °F (1964)
Degree Days  
Heating Degree Days 10    
Growing Degree Days 6 (Base 50)    
Moisture  
Dew Point 52 °F    
Average Humidity 86    
Maximum Humidity 94    
Minimum Humidity 67    
Precipitation  
Precipitation 0.06 in - - ()
Sea Level Pressure  
Sea Level Pressure 30.03 in    
Wind  
Wind Speed 10 mph (SE)    
Max Wind Speed 20 mph    
Max Gust Speed 29 mph    
Visibility 7 miles    
Events Rain    
Averages and records for this station are not official NWS values.
T = Trace of Precipitation, MM = Missing Value Source: NWS Daily Summary

Daily Weather History Graph

Daily Weather History Graph

Search for Another Location

Airport or City:

Trip Planner

Search our weather history database for the weather conditions in past years. The results will help you decide how hot, cold, wet, or windy it might be!

Date:

Astronomy

Mar. 02, 2014 Rise Set
Actual Time 6:37 AM PST 5:59 PM PST
Civil Twilight 6:10 AM PST 6:26 PM PST
Nautical Twilight 5:39 AM PST 6:58 PM PST
Astronomical Twilight 5:08 AM PST 7:29 PM PST
Moon 7:12 AM PST (3/2) 8:01 PM PST (3/2)
Length of Visible Light 12h 16m
Length of Day
11h 22m
Waxing Crescent, 3% of the Moon is Illuminated
Mar 2
Waxing Crescent
Mar 8
First Quarter
Mar 16
Full
Mar 23
Last Quarter
Mar 30
New

Hourly Weather History & Observations

Time (PST) Temp. Dew Point Humidity Pressure Visibility Wind Dir Wind Speed Gust Speed Precip Events Conditions
12:53 AM 57.0 °F 48.0 °F 72% 29.89 in 10.0 mi East 6.9 mph - 0.00 in   Overcast
1:53 AM 55.9 °F 48.0 °F 75% 29.89 in 10.0 mi ENE 6.9 mph - N/A   Overcast
2:53 AM 55.0 °F 48.0 °F 77% 29.88 in 10.0 mi ENE 6.9 mph - N/A   Mostly Cloudy
3:53 AM 55.0 °F 48.0 °F 77% 29.88 in 10.0 mi East 3.5 mph - N/A   Overcast
4:53 AM 55.0 °F 48.0 °F 77% 29.89 in 10.0 mi Calm Calm - N/A   Unknown
5:53 AM 55.0 °F 48.0 °F 77% 29.93 in 10.0 mi Calm Calm - N/A   Overcast
6:53 AM 54.0 °F 48.9 °F 83% 29.94 in 10.0 mi East 4.6 mph - N/A   Overcast
7:53 AM 57.0 °F 46.0 °F 67% 29.96 in 10.0 mi SE 9.2 mph - N/A   Overcast
8:53 AM 57.9 °F 46.9 °F 67% 29.98 in 10.0 mi SSE 6.9 mph - N/A   Overcast
9:53 AM 55.0 °F 51.1 °F 86% 30.01 in 3.0 mi SSE 19.6 mph 28.8 mph 0.00 in Rain Light Rain
10:04 AM 55.0 °F 51.1 °F 86% 30.01 in 5.0 mi SE 16.1 mph 25.3 mph 0.00 in Rain Light Rain
10:32 AM 55.0 °F 51.1 °F 86% 30.02 in 5.0 mi SE 15.0 mph - 0.00 in Rain Light Rain
10:42 AM 55.0 °F 52.0 °F 89% 30.02 in 2.5 mi ESE 11.5 mph - 0.01 in Rain Light Rain
10:50 AM 55.4 °F 51.8 °F 88% 30.02 in 3.0 mi ESE 10.4 mph - 0.01 in Rain Light Rain
10:53 AM 55.0 °F 52.0 °F 89% 30.03 in 2.0 mi ESE 10.4 mph - 0.01 in Rain Light Rain
11:16 AM 55.9 °F 52.0 °F 87% 30.03 in 2.5 mi SE 15.0 mph - 0.01 in Rain Light Rain
11:40 AM 55.9 °F 53.1 °F 90% 30.03 in 2.5 mi ESE 9.2 mph - 0.02 in Rain Light Rain
11:47 AM 55.4 °F 53.6 °F 94% 30.03 in 3.0 mi ESE 9.2 mph - 0.02 in Rain Light Rain
11:53 AM 55.9 °F 53.1 °F 90% 30.04 in 3.0 mi SE 10.4 mph - 0.02 in Rain Light Rain
12:00 PM 55.9 °F 53.1 °F 90% 30.03 in 3.0 mi SE 11.5 mph - 0.00 in Rain Light Rain
12:09 PM 55.9 °F 52.0 °F 87% 30.03 in 2.5 mi SE 9.2 mph - 0.00 in Rain Light Rain
12:14 PM 55.9 °F 53.1 °F 90% 30.03 in 3.0 mi SE 9.2 mph - 0.00 in Rain Light Rain
12:31 PM 55.9 °F 53.1 °F 90% 30.03 in 2.5 mi SSE 9.2 mph - 0.00 in Rain Light Rain
12:43 PM 55.9 °F 53.1 °F 90% 30.02 in 2.0 mi SSE 12.7 mph - 0.01 in Rain Light Rain
12:53 PM 55.9 °F 53.1 °F 90% 30.03 in 2.5 mi SSE 13.8 mph - 0.01 in Rain Light Rain
1:02 PM 55.9 °F 53.1 °F 90% 30.02 in 3.0 mi SSE 13.8 mph - 0.00 in   Overcast
1:28 PM 57.0 °F 53.1 °F 87% 30.02 in 4.0 mi SE 11.5 mph - 0.00 in Rain Light Rain
1:53 PM 57.0 °F 53.1 °F 87% 30.04 in 3.0 mi SSE 15.0 mph - 0.00 in Rain Light Rain
2:03 PM 57.0 °F 53.1 °F 87% 30.03 in 6.0 mi SSE 11.5 mph - 0.00 in Rain Light Rain
2:12 PM 57.0 °F 54.0 °F 89% 30.04 in 3.0 mi SSE 10.4 mph - 0.00 in Rain Light Rain
2:26 PM 57.0 °F 54.0 °F 89% 30.04 in 2.5 mi SE 12.7 mph - 0.00 in Rain Light Rain
2:53 PM 55.9 °F 54.0 °F 93% 30.06 in 1.8 mi SSE 12.7 mph - 0.01 in Rain Light Rain
3:03 PM 57.0 °F 54.0 °F 89% 30.04 in 2.5 mi SSE 16.1 mph - 0.00 in Rain Light Rain
3:10 PM 57.0 °F 54.0 °F 89% 30.04 in 2.5 mi SSE 12.7 mph - 0.01 in Rain Light Rain
3:18 PM 57.0 °F 54.0 °F 89% 30.04 in 4.0 mi SSE 15.0 mph - 0.01 in Rain Light Rain
3:49 PM 57.2 °F 55.4 °F 94% 30.04 in 10.0 mi SSE 15.0 mph - 0.01 in   Overcast
3:53 PM 57.9 °F 55.0 °F 90% 30.05 in 10.0 mi SSE 13.8 mph - 0.01 in   Overcast
4:28 PM 57.9 °F 54.0 °F 87% 30.05 in 10.0 mi SSE 11.5 mph - N/A   Overcast
4:41 PM 57.9 °F 55.0 °F 90% 30.05 in 10.0 mi SE 13.8 mph - N/A   Overcast
4:53 PM 57.9 °F 54.0 °F 87% 30.06 in 10.0 mi SE 18.4 mph - N/A   Overcast
5:01 PM 57.9 °F 54.0 °F 87% 30.05 in 10.0 mi SE 15.0 mph - N/A   Overcast
5:18 PM 57.9 °F 54.0 °F 87% 30.06 in 10.0 mi SSE 15.0 mph - N/A   Overcast
5:26 PM 57.9 °F 54.0 °F 87% 30.06 in 10.0 mi SSE 15.0 mph - N/A   Overcast
5:53 PM 57.9 °F 54.0 °F 87% 30.07 in 10.0 mi SE 13.8 mph - N/A   Overcast
6:05 PM 57.9 °F 53.1 °F 84% 30.06 in 10.0 mi SSE 15.0 mph - N/A   Overcast
6:23 PM 57.0 °F 53.1 °F 87% 30.07 in 10.0 mi SE 12.7 mph - N/A   Mostly Cloudy
6:35 PM 57.0 °F 53.1 °F 87% 30.07 in 10.0 mi SE 12.7 mph - N/A   Overcast
6:53 PM 57.0 °F 53.1 °F 87% 30.09 in 10.0 mi SE 12.7 mph - N/A   Overcast
7:40 PM 57.0 °F 52.0 °F 83% 30.10 in 10.0 mi SE 16.1 mph - N/A   Mostly Cloudy
7:53 PM 57.0 °F 52.0 °F 83% 30.11 in 10.0 mi SSE 15.0 mph - N/A   Overcast
8:53 PM 57.0 °F 52.0 °F 83% 30.12 in 10.0 mi SSE 16.1 mph - N/A   Overcast
9:53 PM 55.9 °F 51.1 °F 84% 30.13 in 10.0 mi SE 15.0 mph - N/A   Overcast
10:53 PM 55.0 °F 50.0 °F 83% 30.15 in 10.0 mi SE 11.5 mph - N/A   Partly Cloudy
11:53 PM 55.0 °F 50.0 °F 83% 30.17 in 10.0 mi SE 12.7 mph - N/A   Mostly Cloudy